Location: 相模原市立博物館
(35.5593°N, 139.3931°E)
Time: 12:55:26
(UTC+09:00)

Envisat - Pass Details

Date: 28 October 2021
Orbit: 764 x 766 km, 98.2° (Epoch: 30 November)

Event Time Altitude Azimuth Distance (km) Brightness Sun altitude
Rises 04:10:39 0° 21° (NNE) 3,236 6.5 -22.8°
Reaches altitude 10° 04:13:07 10° 29° (NNE) 2,305 5.8 -22.3°
Maximum altitude 04:17:51 39° 98° (E) 1,137 4.4 -21.4°
Drops below altitude 10° 04:22:33 10° 167° (SSE) 2,290 5.6 -20.4°
Sets 04:24:59 0° 175° (S) 3,212 6.3 -19.9°
